カタログに戻る

STARLINK-5911

運用中通信VLEO
NORAD 55950·PAYLOAD·🇺🇸 United States

打ち上げ Mar 17, 2023 から Vandenberg Space Force Base

Loading…

次のパス (今後24時間)

TLE

最新Source: CelesTrak SupGP

元期: Sep 15, 2026, 01:41 UTC

1 55950C 23037AN  26258.07062500  .00028540  00000+0  23917-2 0  2582
2 55950  70.0003 147.0482 0002754 265.4334 267.1591 14.98317463    15

AllMySatでSTARLINK-5911をリアルタイム追跡

Download on the App Store